User: anonymous   Login
Location: Mococo
(38.0255°N, 122.1161°W)
Time: 09:54:39
(UTC+00:00)
Language:

Cosmos 2333 Rocket - Orbit

View from above orbital plane
View from above orbital plane
View from above satellite
View from above satellite

Ground track
Ground track

The orbit is defined by the following mean orbital elements,

1 24298U          26106.70109663 +.00000000 +00000-0 +45702-4 0 00007
2 24298  70.7569  94.7826 0012636  83.2420 277.0137 14.12425460    00
Epoch (UTC): 16 April 2026 16:49:34
Eccentricity: 0.0012636
inclination: 70.7569°
perigee height: 842 km
apogee height: 860 km
right ascension of ascending node: 94.7826°
argument of perigee: 83.2420°
revolutions per day: 14.12425460
mean anomaly at epoch: 277.0137°

The dashed part of the orbit path shows where the satellite is in the earth's shadow,  

DLR